Location: Cutler
(25.6150°N, 80.3110°W)
Time: 23:32:14
(UTC-05:00)

Cosmos 2360 Rocket - Visible Passes

Search period start: 24 February 2017 00:00
Search period end: 06 March 2017 00:00
Orbit: 834 x 845 km, 71.0° (Epoch: 24 February)

Date Brightness Start Highest point End Pass type
(mag) Time Alt. Az. Time Alt. Az. Time Alt. Az.
24 Feb 2.9 20:10:04 10° NNW 20:15:31 52° WSW 20:20:59 10° S visible
25 Feb 2.8 19:54:20 10° NNW 19:59:52 56° WSW 20:05:23 10° S visible
26 Feb 2.7 19:38:38 10° NNW 19:44:12 61° WSW 19:49:46 10° S visible
27 Feb 2.6 19:22:56 10° NNW 19:28:33 66° WSW 19:34:08 10° S visible
28 Feb 2.5 19:07:15 10° NNW 19:12:53 72° WSW 19:18:30 10° S visible
01 Mar 2.4 18:51:34 10° NNW 18:57:13 78° WSW 19:02:52 10° SSE visible
